Find Starlink 30949

NORAD ID: 58415 Int'l Des: 2023-180 Owner: SPXS Country: US Constellation: starlink operational
LEOCIRCULAR

現在のビュー

3D地球を読み込み中...

About Starlink 30949

Starlink 30949 (NORAD 58415) is a starlink constellation satellite (v2 mini) launched Nov 22, 2023 by SPXS of US. It operates in LEO, CIRCULAR orbit with a mass of 730.00 kg.

Starlink 30949について

説明を読み込み中...

次回通過

Passes for default location (London). Set your location on the main map for personalized predictions.

高度履歴

Loading altitude history...

軌道要素

1 58415U 23180P 26163.88134929 .00001218 00000-0 53780-4 0 9998
2 58415 43.0040 234.9897 0001294 268.3356 91.7347 15.27581704142184
Epoch: Jun 12, 2026 • Age: 27 hours

現在のステータス

高度 484.3 km
速度 7.63 km/s
衛星直下点 30.03°N, 102.05°E
打ち上げ日 Nov 22, 2023
運用期間 2.5 years
タイプ internet

技術仕様

分類 Payload
質量 730.00 kg
乾燥質量 700.00 kg
総質量 730.00 kg
長さ 0.30 m
直径 4.10 m
スパン 29.00 m
形状 Box + pan
製造者 SPXS
バスタイプ Starlink V2M
フェーズステータス In Orbit
所有者/国 SPXS/US

Most Searched